Weather History for Grand Island, NE

Change the Weather History Date:

Thursday, July 25, 2013

  Actual Average Record
Temperature  
Mean Temperature 77 °F 76 °F  
Max Temperature 84 °F 87 °F 116 °F (1936)
Min Temperature 69 °F 65 °F 49 °F (1911)
Degree Days  
Heating Degree Days 0 0  
Month to date heating degree days 0 0  
Since 1 June heating degree days 21 24  
Since 1 July heating degree days 0 0  
Cooling Degree Days 12 11  
Month to date cooling degree days 344 284  
Year to date cooling degree days 698 562  
Since 1 June cooling degree days 603 497  
Growing Degree Days 27 (Base 50)    
Moisture  
Dew Point 65 °F    
Average Humidity 63    
Maximum Humidity 79    
Minimum Humidity 47    
Precipitation  
Precipitation 0.11 in 0.10 in 1.28 in (1990)
Month to date precipitation 0.85 2.77  
Year to date precipitation 15.85 17.02  
Snow  
Snow 0.00 in 0.00 in - ()
Month to date snowfall 0.0 0.0  
Since 1 June snowfall 0.0 0.0  
Since 1 July snowfall 0.0 0.0  
Snow Depth 0.00 in    
Sea Level Pressure  
Sea Level Pressure 30.01 in    
Wind  
Wind Speed 10 mph (SSW)    
Max Wind Speed 21 mph    
Max Gust Speed 29 mph    
Visibility 10 miles    
Events Rain , Thunderstorm    
T = Trace of Precipitation, MM = Missing Value Source: NWS Daily Summary

Daily Weather History Graph

Daily Weather History Graph

Search for Another Location

Airport:

Trip Planner

Search our weather history database for the weather conditions in past years. The results will help you decide how hot, cold, wet, or windy it might be!

Date:

Astronomy

Jul. 25, 2013 Rise Set
Actual Time 6:23 AM CDT 8:56 PM CDT
Civil Twilight 5:51 AM CDT 9:27 PM CDT
Nautical Twilight 5:12 AM CDT 10:06 PM CDT
Astronomical Twilight 4:27 AM CDT 10:50 PM CDT
Moon 10:35 PM CDT (7/25) 9:56 AM CDT (7/25)
Length of Visible Light 15h 36m
Length of Day
14h 33m
Waning Gibbous, 88% of the Moon is Illuminated
Jul 25
Waning Gibbous
Jul 29
Last Quarter
Aug 6
New
Aug 14
First Quarter
Aug 20
Full

Hourly Weather History & Observations

Time (CDT) Temp. Heat Index Dew Point Humidity Pressure Visibility Wind Dir Wind Speed Gust Speed Precip Events Conditions
12:53 AM 73.0 °F - 64.9 °F 76% 30.02 in 10.0 mi SSE 6.9 mph - N/A   Clear
1:53 AM 72.0 °F - 64.9 °F 78% 30.01 in 10.0 mi South 5.8 mph - N/A   Clear
2:53 AM 71.1 °F - 64.9 °F 81% 30.01 in 10.0 mi South 5.8 mph - N/A   Scattered Clouds
3:53 AM 71.1 °F - 64.9 °F 81% 30.00 in 10.0 mi SSE 5.8 mph - N/A   Mostly Cloudy
4:53 AM 72.0 °F - 63.0 °F 73% 29.99 in 10.0 mi South 10.4 mph - N/A   Scattered Clouds
5:53 AM 71.1 °F - 63.0 °F 75% 29.99 in 10.0 mi South 9.2 mph - N/A   Partly Cloudy
6:53 AM 72.0 °F - 62.1 °F 71% 30.00 in 10.0 mi SSW 12.7 mph - N/A   Clear
7:53 AM 73.0 °F - 62.1 °F 68% 30.01 in 10.0 mi SSW 11.5 mph - N/A   Mostly Cloudy
8:53 AM 73.0 °F - 63.0 °F 71% 30.02 in 10.0 mi South 4.6 mph - N/A   Clear
9:53 AM 75.9 °F - 62.1 °F 62% 30.01 in 10.0 mi South 11.5 mph - N/A   Clear
10:53 AM 79.0 °F - 62.1 °F 56% 30.00 in 10.0 mi SSW 13.8 mph - N/A   Clear
11:53 AM 81.0 °F 81.6 °F 60.1 °F 49% 30.00 in 10.0 mi SSW 17.3 mph 24.2 mph N/A   Clear
12:53 PM 80.1 °F 81.2 °F 62.1 °F 54% 30.00 in 10.0 mi SW 17.3 mph - N/A   Clear
1:53 PM 80.1 °F 81.7 °F 64.0 °F 58% 30.00 in 10.0 mi West 13.8 mph - N/A   Clear
2:53 PM 82.0 °F 82.4 °F 60.1 °F 47% 30.00 in 10.0 mi SW 12.7 mph - N/A   Clear
3:53 PM 80.1 °F 81.1 °F 61.0 °F 52% 30.01 in 10.0 mi SSW 12.7 mph - N/A   Clear
4:53 PM 82.0 °F 83.0 °F 62.1 °F 51% 29.98 in 10.0 mi South 15.0 mph - N/A   Clear
5:53 PM 78.1 °F - 64.0 °F 62% 29.98 in 10.0 mi South 9.2 mph - N/A   Partly Cloudy
6:53 PM 78.1 °F - 66.0 °F 66% 29.98 in 10.0 mi South 12.7 mph - N/A   Mostly Cloudy
7:53 PM 75.9 °F - 66.0 °F 71% 29.97 in 10.0 mi SSW 9.2 mph - N/A   Overcast
8:53 PM 73.9 °F - 69.1 °F 85% 30.00 in 7.0 mi East 8.1 mph - 0.01 in Rain Rain
9:53 PM 71.1 °F - 69.1 °F 93% 30.01 in 10.0 mi ENE 4.6 mph - 0.00 in Thunderstorm Scattered Clouds
10:08 PM 71.6 °F - 69.8 °F 94% 30.07 in 9.0 mi NNW 5.8 mph - N/A   Mostly Cloudy
10:28 PM 71.6 °F - 69.8 °F 94% 30.06 in 2.0 mi South 3.5 mph - 0.09 in Rain , Thunderstorm Rain
10:38 PM 71.6 °F - 69.8 °F 94% 30.06 in 7.0 mi Calm Calm - 0.10 in Rain , Thunderstorm Light Rain
10:49 PM 71.6 °F - 69.8 °F 94% 30.06 in 10.0 mi SSW 3.5 mph - 0.10 in Rain Light Rain
10:53 PM 72.0 °F - 70.0 °F 93% 30.01 in 10.0 mi SSW 3.5 mph - 0.10 in Rain Light Rain
11:53 PM 71.1 °F - 69.1 °F 93% 30.01 in 10.0 mi Calm Calm - 0.00 in   Mostly Cloudy